Location: Heilwood
(40.6210°N, 78.9150°W)
Time: 20:27:23
(UTC-04:00)

BREEZE-M DEB (TANK) - Visible Passes

Search period start: 27 August 2015 00:00
Search period end: 06 September 2015 00:00
Orbit: 317 x 15927 km, 49.5° (Epoch: 26 August)

Date Brightness Start Highest point End Pass type
(mag) Time Alt. Az. Time Alt. Az. Time Alt. Az.
27 Aug 7.3 01:13:42 16° SE 01:13:42 16° SE 01:21:37 10° ESE visible
27 Aug 4.0 06:06:17 10° WSW 06:21:46 67° NNW 06:25:45 10° NE visible
28 Aug 7.2 01:22:39 19° SE 01:22:39 19° SE 01:31:32 10° E visible
28 Aug 4.0 06:16:15 10° WSW 06:30:17 59° NNW 06:34:08 10° NE visible
29 Aug 7.1 01:31:31 22° SE 01:31:31 22° SE 01:41:01 10° E visible
30 Aug 7.0 01:40:21 25° SE 01:40:21 25° SE 01:50:13 10° E visible
31 Aug 7.0 01:49:06 28° SE 01:49:06 28° SE 01:59:13 10° E visible
01 Sep 6.9 01:57:48 31° SE 01:57:48 31° SE 02:08:05 10° E visible
02 Sep 6.7 02:06:28 34° SE 02:06:28 34° SE 02:16:49 10° E visible
03 Sep 6.5 02:15:05 37° SE 02:15:30 37° SE 02:25:28 10° ENE visible
04 Sep 6.3 02:23:39 41° SSE 02:24:36 41° SE 02:34:01 10° ENE visible
05 Sep 6.1 02:32:11 44° SSE 02:33:36 45° SE 02:42:31 10° ENE visible
